• Em Portugal
  • Lista de países
  • Para 7 dias
  • Temperatura da água
  • Mapas de satélite
  • Mapa do tempo
  • Widgets de tempo
  • user-avatar
    Iniciar Sessão

    Previsão horária em Hrazdan

    Hoje, 20 Novembro, Segunda-feira

    Tempo Temperatura Precipitação Vento Pressão Humidade
    00:00 +4°C° 0,4 mm 2 m/s 612 mmHg 61%
    01:00 +4°C° 0,1 mm 2 m/s 611 mmHg 63%
    02:00 +3°C° 0,1 mm 2 m/s 611 mmHg 65%
    03:00 +2°C° 0 mm 3 m/s 611 mmHg 71%
    04:00 +2°C° 0 mm 3 m/s 611 mmHg 72%
    05:00 +2°C° 0 mm 3 m/s 611 mmHg 72%
    06:00 +2°C° 0 mm 2 m/s 611 mmHg 73%
    07:00 +2°C° 0 mm 3 m/s 611 mmHg 69%
    08:00 +3°C° 0 mm 3 m/s 611 mmHg 64%
    09:00 +4°C° 0 mm 3 m/s 612 mmHg 59%
    10:00 +5°C° 0 mm 3 m/s 612 mmHg 56%
    11:00 +6°C° 0 mm 4 m/s 612 mmHg 53%
    12:00 +7°C° 0 mm 4 m/s 612 mmHg 50%
    13:00 +7°C° 0 mm 4 m/s 611 mmHg 50%
    14:00 +8°C° 0 mm 3 m/s 611 mmHg 50%
    15:00 +8°C° 0 mm 3 m/s 611 mmHg 50%
    16:00 +7°C° 0 mm 3 m/s 610 mmHg 53%
    17:00 +4°C° 0 mm 3 m/s 610 mmHg 57%
    18:00 +4°C° 0 mm 2 m/s 610 mmHg 61%
    19:00 +4°C° 0 mm 2 m/s 610 mmHg 62%
    20:00 +4°C° 0 mm 2 m/s 609 mmHg 64%
    21:00 +3°C° 0 mm 2 m/s 609 mmHg 65%
    22:00 +3°C° 0 mm 2 m/s 609 mmHg 67%
    23:00 +3°C° 0 mm 2 m/s 609 mmHg 68%

    Amanhã, 21 Novembro, Terça-feira

    Tempo Temperatura Precipitação Vento Pressão Humidade
    00:00 +3°C° 0 mm 2 m/s 609 mmHg 70%
    01:00 +3°C° 0 mm 2 m/s 608 mmHg 70%
    02:00 +3°C° 0 mm 2 m/s 608 mmHg 71%
    03:00 +2°C° 0 mm 2 m/s 608 mmHg 72%
    04:00 +2°C° 0 mm 2 m/s 608 mmHg 72%
    05:00 +2°C° 0 mm 2 m/s 608 mmHg 73%
    06:00 +2°C° 0 mm 2 m/s 607 mmHg 73%
    07:00 +3°C° 0 mm 2 m/s 608 mmHg 69%
    08:00 +4°C° 0 mm 2 m/s 608 mmHg 64%
    09:00 +5°C° 0 mm 2 m/s 608 mmHg 60%
    10:00 +5°C° 0,1 mm 3 m/s 608 mmHg 58%
    11:00 +7°C° 0,1 mm 3 m/s 608 mmHg 56%
    12:00 +8°C° 0,1 mm 3 m/s 608 mmHg 54%
    13:00 +8°C° 0 mm 3 m/s 607 mmHg 56%
    14:00 +8°C° 0 mm 3 m/s 607 mmHg 57%
    15:00 +7°C° 0 mm 3 m/s 606 mmHg 59%
    16:00 +5°C° 0 mm 3 m/s 606 mmHg 65%
    17:00 +5°C° 0 mm 2 m/s 606 mmHg 70%
    18:00 +4°C° 0 mm 2 m/s 605 mmHg 76%
    19:00 +4°C° 0 mm 2 m/s 605 mmHg 78%
    20:00 +4°C° 0 mm 2 m/s 605 mmHg 79%
    21:00 +4°C° 0 mm 2 m/s 604 mmHg 81%
    22:00 +3°C° 0 mm 2 m/s 604 mmHg 82%
    23:00 +3°C° 0 mm 2 m/s 604 mmHg 83%

    Depois de amanhã, 22 Novembro, Quarta-feira

    Tempo Temperatura Precipitação Vento Pressão Humidade
    00:00 +2°C° 0 mm 3 m/s 604 mmHg 84%
    01:00 +3°C° 0,2 mm 2 m/s 604 mmHg 86%
    02:00 +3°C° 0,2 mm 2 m/s 604 mmHg 87%
    03:00 +2°C° 0,2 mm 2 m/s 604 mmHg 88%
    04:00 +2°C° 0,7 mm 2 m/s 604 mmHg 88%
    05:00 +2°C° 0,7 mm 2 m/s 604 mmHg 88%
    06:00 +1°C° 0,7 mm 2 m/s 604 mmHg 88%
    07:00 +1°C° 1,4 mm 2 m/s 604 mmHg 88%
    08:00 +1°C° 1,4 mm 2 m/s 604 mmHg 89%
    09:00 -1°C° 1,4 mm 2 m/s 604 mmHg 89%
    10:00 +1°C° 0,9 mm 2 m/s 604 mmHg 88%
    11:00 +1°C° 0,9 mm 2 m/s 604 mmHg 87%
    12:00 +1°C° 0,9 mm 2 m/s 604 mmHg 86%
    13:00 -1°C° 0,5 mm 2 m/s 604 mmHg 85%
    14:00 -1°C° 0,5 mm 2 m/s 604 mmHg 85%
    15:00 -1°C° 0,5 mm 2 m/s 604 mmHg 84%
    16:00 -2°C° 0,5 mm 2 m/s 604 mmHg 85%
    17:00 -2°C° 0,5 mm 2 m/s 605 mmHg 86%
    18:00 -3°C° 0,5 mm 2 m/s 605 mmHg 86%
    19:00 -3°C° 0,2 mm 2 m/s 605 mmHg 87%
    20:00 -2°C° 0,2 mm 1 m/s 606 mmHg 88%
    21:00 -2°C° 0,2 mm 1 m/s 606 mmHg 88%
    22:00 -3°C° 0,1 mm 1 m/s 606 mmHg 87%
    23:00 -3°C° 0,1 mm 1 m/s 606 mmHg 86%

    23 Novembro, Quinta-feira

    Tempo Temperatura Precipitação Vento Pressão Humidade
    00:00 -4°C° 0,1 mm 1 m/s 606 mmHg 85%
    01:00 -6°C° 0 mm 1 m/s 606 mmHg 82%
    02:00 -7°C° 0 mm 2 m/s 606 mmHg 80%
    03:00 -7°C° 0 mm 2 m/s 606 mmHg 78%
    04:00 -8°C° 0 mm 2 m/s 606 mmHg 78%
    05:00 -8°C° 0 mm 2 m/s 606 mmHg 77%
    06:00 -8°C° 0 mm 2 m/s 606 mmHg 77%
    07:00 -8°C° 0 mm 2 m/s 606 mmHg 77%
    08:00 -7°C° 0 mm 2 m/s 607 mmHg 77%
    09:00 -7°C° 0 mm 3 m/s 607 mmHg 77%
    10:00 -6°C° 0 mm 3 m/s 607 mmHg 74%
    11:00 -6°C° 0 mm 3 m/s 607 mmHg 71%
    12:00 -5°C° 0 mm 4 m/s 607 mmHg 68%
    13:00 -5°C° 0 mm 4 m/s 607 mmHg 68%
    14:00 -5°C° 0 mm 3 m/s 607 mmHg 69%
    15:00 -5°C° 0 mm 3 m/s 606 mmHg 69%
    16:00 -6°C° 0 mm 3 m/s 606 mmHg 70%
    17:00 -7°C° 0 mm 3 m/s 606 mmHg 72%
    18:00 -7°C° 0 mm 2 m/s 606 mmHg 73%
    19:00 -7°C° 0 mm 2 m/s 606 mmHg 73%
    20:00 -8°C° 0 mm 2 m/s 606 mmHg 73%
    21:00 -8°C° 0 mm 2 m/s 606 mmHg 73%
    22:00 -8°C° 0,1 mm 2 m/s 606 mmHg 75%
    23:00 -8°C° 0,1 mm 2 m/s 607 mmHg 78%

    24 Novembro, Sexta-feira

    Tempo Temperatura Precipitação Vento Pressão Humidade
    00:00 -7°C° 0,1 mm 1 m/s 607 mmHg 80%
    01:00 -6°C° 0,4 mm 1 m/s 607 mmHg 83%
    02:00 -6°C° 0,4 mm 1 m/s 607 mmHg 86%
    03:00 -6°C° 0,4 mm 1 m/s 607 mmHg 89%
    04:00 -7°C° 0,4 mm 1 m/s 608 mmHg 89%
    05:00 -7°C° 0,4 mm 1 m/s 608 mmHg 89%
    06:00 -7°C° 0,4 mm 1 m/s 608 mmHg 90%
    07:00 -6°C° 0,2 mm 1 m/s 609 mmHg 88%
    08:00 -6°C° 0,2 mm 1 m/s 609 mmHg 86%
    09:00 -6°C° 0,2 mm 1 m/s 610 mmHg 84%
    10:00 -4°C° 0 mm 1 m/s 610 mmHg 81%
    11:00 -3°C° 0 mm 1 m/s 610 mmHg 77%
    12:00 -3°C° 0 mm 1 m/s 610 mmHg 74%
    13:00 -3°C° 0 mm 1 m/s 610 mmHg 74%
    14:00 -3°C° 0 mm 1 m/s 609 mmHg 74%
    15:00 -3°C° 0 mm 1 m/s 609 mmHg 74%
    16:00 -6°C° 0 mm 1 m/s 609 mmHg 75%
    17:00 -8°C° 0 mm 1 m/s 609 mmHg 75%
    18:00 -9°C° 0 mm 1 m/s 608 mmHg 76%
    19:00 -10°C° 0 mm 1 m/s 609 mmHg 75%
    20:00 -12°C° 0 mm 2 m/s 609 mmHg 73%
    21:00 -12°C° 0 mm 2 m/s 609 mmHg 72%
    22:00 -12°C° 0 mm 2 m/s 609 mmHg 72%
    23:00 -12°C° 0 mm 2 m/s 610 mmHg 73%

    25 Novembro, Sábado

    Tempo Temperatura Precipitação Vento Pressão Humidade
    00:00 -12°C° 0 mm 2 m/s 610 mmHg 74%
    01:00 -12°C° 0 mm 2 m/s 610 mmHg 75%
    02:00 -12°C° 0 mm 2 m/s 610 mmHg 75%
    03:00 -12°C° 0 mm 2 m/s 610 mmHg 76%
    04:00 -12°C° 0 mm 2 m/s 611 mmHg 76%
    05:00 -12°C° 0 mm 2 m/s 611 mmHg 75%
    06:00 -12°C° 0 mm 2 m/s 611 mmHg 75%
    07:00 -10°C° 0 mm 2 m/s 612 mmHg 74%
    08:00 -9°C° 0 mm 2 m/s 612 mmHg 73%
    09:00 -8°C° 0 mm 2 m/s 613 mmHg 72%
    10:00 -8°C° 0 mm 2 m/s 613 mmHg 69%
    11:00 -7°C° 0 mm 2 m/s 613 mmHg 67%
    12:00 -7°C° 0 mm 3 m/s 613 mmHg 64%
    13:00 -6°C° 0 mm 2 m/s 613 mmHg 66%
    14:00 -6°C° 0 mm 2 m/s 613 mmHg 67%
    15:00 -6°C° 0 mm 2 m/s 612 mmHg 69%
    16:00 -8°C° 0 mm 2 m/s 612 mmHg 69%
    17:00 -9°C° 0 mm 2 m/s 612 mmHg 70%
    18:00 -10°C° 0 mm 2 m/s 612 mmHg 71%
    19:00 -12°C° 0 mm 2 m/s 612 mmHg 71%
    20:00 -12°C° 0 mm 2 m/s 612 mmHg 71%
    21:00 -12°C° 0 mm 2 m/s 612 mmHg 71%
    22:00 -12°C° 0 mm 2 m/s 612 mmHg 71%
    23:00 -12°C° 0 mm 2 m/s 612 mmHg 71%
    Mostrar mais